Tioga Municipal Airport, ND

10:35 PM CDT on September 22, 2019 (GMT -0500)
Tioga Municipal Airport

Weather History for KD60 - August, 2019

Change the Weather History Date:

Thursday, August 22, 2019

  Actual Average (KISN) Record (KISN)
Temperature  
Mean Temperature 65 °F -  
Max Temperature 80 °F 81 °F 103 °F (1969)
Min Temperature 50 °F 53 °F 32 °F (1911)
Growing Degree Days 15 (Base 50)    
Moisture  
Dew Point 56 °F    
Average Humidity 74    
Maximum Humidity 100    
Minimum Humidity 42    
Precipitation  
Precipitation 0.00 in - - ()
Sea Level Pressure  
Sea Level Pressure 29.96 in    
Wind  
Wind Speed 15 mph (SE)    
Max Wind Speed 30 mph    
Max Gust Speed 38 mph    
Visibility 10 miles    
Events      
Averages and records for this station are not official NWS values.
T = Trace of Precipitation, MM = Missing Value Source: NWS Daily Summary

Daily Weather History Graph

Daily Weather History Graph

Search for Another Location

Airport or City:

Astronomy

Aug. 22, 2019 Rise Set
Actual Time 6:54 AM CDT 8:53 PM CDT
Civil Twilight 6:21 AM CDT 9:26 PM CDT
Nautical Twilight 5:39 AM CDT 10:07 PM CDT
Astronomical Twilight 4:53 AM CDT 10:53 PM CDT
Moon No Moon Rise 2:04 PM CDT (8/22)
Length of Visible Light 15h 05m
Length of Day
13h 58m
Waning Gibbous, 59% of the Moon is Illuminated
Aug 22
Waning Gibbous
Aug 23
Last Quarter
Aug 30
New
Sep 5
First Quarter
Sep 13
Full

Hourly Weather History & Observations

Time (CDT) Temp. Heat Index Dew Point Humidity Pressure Visibility Wind Dir Wind Speed Gust Speed Precip Events Conditions
12:35 AM 51.8 °F - 51.8 °F 100% 30.08 in 10.0 mi North - - N/A   Clear
12:55 AM 51.8 °F - 51.8 °F 100% 30.07 in 10.0 mi East 8.1 mph - N/A   Clear
1:15 AM 51.8 °F - 51.8 °F 100% 30.07 in 10.0 mi East 10.4 mph - N/A   Clear
1:35 AM 53.6 °F - 50.0 °F 88% 30.07 in 10.0 mi East 5.8 mph - N/A   Clear
1:55 AM 53.6 °F - 50.0 °F 88% 30.06 in 10.0 mi ESE 9.2 mph - N/A   Clear
2:15 AM 53.6 °F - 50.0 °F 88% 30.04 in 10.0 mi ESE 9.2 mph - N/A   Clear
2:35 AM 53.6 °F - 50.0 °F 88% 30.03 in 10.0 mi East 10.4 mph - N/A   Clear
2:55 AM 51.8 °F - 50.0 °F 94% 30.03 in 10.0 mi East 10.4 mph - N/A   Clear
3:15 AM 51.8 °F - 50.0 °F 94% 30.03 in 10.0 mi East 11.5 mph - N/A   Clear
3:35 AM 51.8 °F - 50.0 °F 94% 30.02 in 10.0 mi East 13.8 mph - N/A   Clear
3:55 AM 51.8 °F - 50.0 °F 94% 30.02 in 10.0 mi East 12.7 mph - N/A   Clear
4:15 AM 53.6 °F - 50.0 °F 88% 30.02 in 10.0 mi East 9.2 mph - N/A   Clear
4:35 AM 51.8 °F - 50.0 °F 94% 30.01 in 10.0 mi East 9.2 mph - N/A   Clear
4:55 AM 50.0 °F - 50.0 °F 100% 30.02 in 10.0 mi East 8.1 mph - N/A   Clear
5:15 AM 50.0 °F - 50.0 °F 100% 30.01 in 10.0 mi East 9.2 mph - N/A   Clear
5:35 AM 50.0 °F - 50.0 °F 100% 30.01 in 10.0 mi East 11.5 mph - N/A   Clear
5:55 AM 50.0 °F - 50.0 °F 100% 30.00 in 10.0 mi East 11.5 mph - N/A   Clear
6:15 AM 50.0 °F - 50.0 °F 100% 30.00 in 10.0 mi East 12.7 mph - N/A   Clear
6:35 AM 50.0 °F - 50.0 °F 100% 30.00 in 10.0 mi East 15.0 mph - N/A   Clear
6:55 AM 50.0 °F - 50.0 °F 100% 29.99 in 10.0 mi East 13.8 mph - N/A   Clear
7:15 AM 50.0 °F - 50.0 °F 100% 30.00 in 10.0 mi East 12.7 mph - N/A   Clear
7:35 AM 51.8 °F - 51.8 °F 100% 30.01 in 10.0 mi ESE 12.7 mph - N/A   Clear
7:55 AM 53.6 °F - 51.8 °F 94% 30.02 in 10.0 mi SE 5.8 mph - N/A   Clear
8:15 AM 55.4 °F - 53.6 °F 94% 30.02 in 10.0 mi ESE 8.1 mph - N/A   Clear
8:35 AM 55.4 °F - 53.6 °F 94% 30.01 in 10.0 mi East 9.2 mph - N/A   Clear
8:55 AM 57.2 °F - 53.6 °F 88% 30.00 in 10.0 mi ESE 12.7 mph - N/A   Clear
9:15 AM 59.0 °F - 55.4 °F 88% 29.99 in 10.0 mi ESE 13.8 mph - N/A   Clear
9:35 AM 62.6 °F - 57.2 °F 82% 29.99 in 10.0 mi ESE 13.8 mph - N/A   Clear
10:15 AM 68.0 °F - 57.2 °F 68% 29.98 in 10.0 mi SE 19.6 mph - N/A   Clear
10:35 AM 69.8 °F - 57.2 °F 64% 29.98 in 9.0 mi SE 20.7 mph 26.5 mph N/A   Clear
10:55 AM 69.8 °F - 55.4 °F 60% 29.98 in 6.0 mi SE 23.0 mph - N/A   Haze
11:15 AM 71.6 °F - 53.6 °F 53% 29.97 in 9.0 mi SE 24.2 mph - N/A   Clear
11:35 AM 73.4 °F - 53.6 °F 50% 29.96 in 9.0 mi SE 25.3 mph 33.4 mph N/A   Clear
11:55 AM 75.2 °F - 53.6 °F 47% 29.96 in 5.0 mi SE 24.2 mph 32.2 mph N/A   Haze
12:15 PM 75.2 °F - 53.6 °F 47% 29.95 in 9.0 mi SE 26.5 mph 33.4 mph N/A   Clear
12:35 PM 75.2 °F - 53.6 °F 47% 29.94 in 10.0 mi ESE 26.5 mph 35.7 mph N/A   Clear
12:55 PM 77.0 °F - 53.6 °F 44% 29.93 in 10.0 mi SE 27.6 mph - N/A   Clear
1:15 PM 77.0 °F - 53.6 °F 44% 29.93 in 10.0 mi SE 28.8 mph 34.5 mph N/A   Clear
1:35 PM 78.8 °F - 55.4 °F 44% 29.92 in 10.0 mi SE 27.6 mph 34.5 mph N/A   Clear
1:55 PM 78.8 °F - 55.4 °F 44% 29.92 in 10.0 mi SE 27.6 mph 36.8 mph N/A   Clear
2:15 PM 78.8 °F - 55.4 °F 44% 29.92 in 10.0 mi SE 26.5 mph 36.8 mph N/A   Clear
2:35 PM 78.8 °F - 55.4 °F 44% 29.92 in 10.0 mi SE 24.2 mph 33.4 mph N/A   Clear
2:55 PM 80.6 °F 80.5 °F 55.4 °F 42% 29.92 in 10.0 mi SE 25.3 mph 33.4 mph N/A   Partly Cloudy
3:15 PM 80.6 °F 80.8 °F 57.2 °F 45% 29.92 in 10.0 mi SSE 26.5 mph 33.4 mph N/A   Partly Cloudy
3:35 PM 80.6 °F 80.8 °F 57.2 °F 45% 29.92 in 10.0 mi SSE 23.0 mph 32.2 mph N/A   Clear
3:55 PM 80.6 °F 80.8 °F 57.2 °F 45% 29.91 in 9.0 mi SE 28.8 mph 38.0 mph N/A   Clear
4:15 PM 80.6 °F 80.8 °F 57.2 °F 45% 29.90 in 10.0 mi SE 29.9 mph 36.8 mph N/A   Clear
4:35 PM 80.6 °F 81.1 °F 59.0 °F 48% 29.90 in 10.0 mi SSE 26.5 mph 35.7 mph N/A   Clear
4:55 PM 80.6 °F 81.1 °F 59.0 °F 48% 29.90 in 9.0 mi SE 23.0 mph 34.5 mph N/A   Clear
5:15 PM 80.6 °F 81.1 °F 59.0 °F 48% 29.90 in 9.0 mi SE 27.6 mph 35.7 mph N/A   Clear
5:35 PM 80.6 °F 81.1 °F 59.0 °F 48% 29.89 in 10.0 mi SSE 27.6 mph - N/A   Clear
5:55 PM 78.8 °F - 59.0 °F 51% 29.89 in 10.0 mi SSE 25.3 mph 33.4 mph N/A   Clear
6:15 PM 78.8 °F - 60.8 °F 54% 29.89 in 10.0 mi SSE 27.6 mph 34.5 mph N/A   Clear
6:35 PM 78.8 °F - 60.8 °F 54% 29.89 in 9.0 mi SSE 27.6 mph 34.5 mph N/A   Clear
6:55 PM 78.8 °F - 60.8 °F 54% 29.90 in 10.0 mi SSE 23.0 mph - N/A   Clear
7:15 PM 77.0 °F - 60.8 °F 57% 29.90 in 10.0 mi SE 26.5 mph 33.4 mph N/A   Clear
7:35 PM 77.0 °F - 60.8 °F 57% 29.90 in 10.0 mi SE 20.7 mph 28.8 mph N/A   Clear
7:55 PM 75.2 °F - 60.8 °F 61% 29.90 in 10.0 mi SE 25.3 mph - N/A   Clear
8:15 PM 73.4 °F - 60.8 °F 65% 29.89 in 10.0 mi SE 21.9 mph 28.8 mph N/A   Clear
8:35 PM 73.4 °F - 60.8 °F 65% 29.90 in 10.0 mi SE 18.4 mph 27.6 mph N/A   Clear
8:55 PM 71.6 °F - 62.6 °F 73% 29.90 in 10.0 mi SE 15.0 mph - N/A   Clear
9:15 PM 69.8 °F - 62.6 °F 78% 29.90 in 10.0 mi SE 16.1 mph 23.0 mph N/A   Clear
9:35 PM 69.8 °F - 64.4 °F 83% 29.91 in 10.0 mi SE 16.1 mph - N/A   Clear
9:55 PM 69.8 °F - 64.4 °F 83% 29.91 in 10.0 mi SE 16.1 mph 24.2 mph N/A   Clear
10:15 PM 68.0 °F - 64.4 °F 88% 29.91 in 10.0 mi SE 17.3 mph 25.3 mph N/A   Clear
10:35 PM 68.0 °F - 66.2 °F 94% 29.92 in 10.0 mi SSE 17.3 mph - N/A   Clear
10:55 PM 68.0 °F - 66.2 °F 94% 29.92 in 10.0 mi SE 18.4 mph 25.3 mph N/A   Clear
11:15 PM 68.0 °F - 66.2 °F 94% 29.93 in 10.0 mi SSE 12.7 mph 24.2 mph N/A   Clear
11:35 PM 68.0 °F - 66.2 °F 94% 29.94 in 10.0 mi SSE 11.5 mph 24.2 mph N/A   Partly Cloudy
11:55 PM 66.2 °F - 66.2 °F 100% 29.94 in 10.0 mi SE 11.5 mph 18.4 mph N/A   Partly Cloudy